Regional Weather Roundup
Issued by NWS Columbia, SC

Home | Current Version | Previous Version | Text Only | Print | Product List | Glossary On
Versions: 1 2 3 4 5 6 7 8 9 10 11 12 13 14 15 16 17 18 19 20 21 22 23 24 25 26 27 28 29 30 31 32 33 34 35 36 37 38 39 40 41 42 43 44 45 46 47 48 49 50
000
ASUS42 KCAE 271610
RWRCAE
REGIONAL WEATHER ROUNDUP
NATIONAL WEATHER SERVICE COLUMBIA SC
1100 AM EST TUE JAN 27 2015

NOTE: "FAIR" INDICATES FEW OR NO CLOUDS BELOW 12,000 FEET WITH NO
SIGNIFICANT WEATHER AND/OR OBSTRUCTIONS TO VISIBILITY.

NOT ALL STATIONS ARE QUALITY CONTROLLED BY THE NATIONAL
WEATHER SERVICE. USE DATA WITH CAUTION...ESPECIALLY
DEWPOINT OBSERVATIONS.

SCZ001>056-GAZ040-063>065-077-271700-
...UPSTATE SOUTH CAROLINA...

CITY           SKY/WX    TMP DP  RH WIND       PRES   REMARKS
ANDERSON       MOSUNNY   45  27  49 NE5G22    29.88R
LIBERTY        CLOUDY    38  32  78 MISG      29.88R
SPARTANBURG    CLOUDY    41  25  52 N7        29.88R
CLEMSON        MOSUNNY   45  23  42 NW8       29.89R
GREENVILLE     CLOUDY    40  23  50 N6        29.89R
GREENWOOD      PTSUNNY   42  26  53 N9        29.91R
GREER          CLOUDY    39  23  52 N9        29.87R WCI  33
ROCK HILL      CLOUDY    38  21  50 NW5       29.88R WCI  34
CHESTER        CLOUDY    41  19  42 NW9       29.89R
LAURENS        CLOUDY    41  32  70 NW7       29.89R


...CENTRAL SOUTH CAROLINA...

CITY           SKY/WX    TMP DP  RH WIND       PRES   REMARKS
COLUMBIA APT   CLOUDY    43  25  49 NW12      29.90R
COLUMBIA OWENS CLOUDY    42  22  44 NW9       29.91R
DARLINGTON     PTSUNNY   41  19  42 NW12      29.87F
FLORENCE       CLOUDY    41  19  41 N13       29.86S
MCENTIRE ANGB  CLOUDY    43  22  43 N8        29.89S
ORANGEBURG     CLOUDY    42  25  50 NW7       29.89S
SUMTER SHAW    CLOUDY    42  22  46 N12       29.87R
NEWBERRY       CLOUDY    37  28  70 N5        29.92S WCI  34
AIKEN          PTSUNNY   41  30  65 W8        29.92S
BARNWELL       PTSUNNY   43  32  65 CALM      29.91S
CAMDEN         PTSUNNY   39  18  41 N9        29.90R WCI  33
LANCASTER      PTSUNNY   39  19  45 NW6       29.88R WCI  35
WINNSBORO      CLOUDY    37  27  65 W3        29.88S


...EASTERN AND COASTAL SOUTH CAROLINA...

CITY           SKY/WX    TMP DP  RH WIND       PRES   REMARKS
MYRTLE BEACH   SUNNY     43  25  49 NW13      29.85R
N MYRTLE BCH   SUNNY     44  28  53 N8        29.82R
CONWAY         FAIR      41  28  60 NW7       29.85R
MARION         PTSUNNY   41  21  45 NW13      29.85F
HARTSVILLE     PTSUNNY   41   9  26 N7G16     29.87S
FLORENCE       CLOUDY    41  19  41 N13       29.86S
DARLINGTON     PTSUNNY   41  19  42 NW12      29.87F
CHARLESTON APT PTSUNNY   45  24  43 NW13      29.88S
MOUNT PLEASANT FAIR     N/A N/A N/A NW12      29.88R
WALTERBORO     CLOUDY    43  25  49 NW8       29.90S
BEAUFORT       MOSUNNY   46  29  51 NW14      29.90F


...EASTERN GEORGIA...

CITY           SKY/WX    TMP DP  RH WIND       PRES   REMARKS
AUGUSTA BUSH F CLOUDY    43  30  60 MISG      29.91R
AUGUSTA DANIEL CLOUDY    44  30  57 NW6       29.90R
THOMSON        SUNNY     48  35  62 W13G18    29.93S
WASHINGTON     FAIR      46  36  66 W13G22    29.90R
CLAXTON        FAIR      46  36  66 NW20      29.92S
SYLVANIA       CLOUDY    44  34  69 NW10      29.91S
STATESBORO     CLOUDY    45  33  63 NW10      29.90F
SAVANNAH       PTSUNNY   49  31  49 NW15      29.91S


...SOUTHERN NORTH CAROLINA...

CITY           SKY/WX    TMP DP  RH WIND       PRES   REMARKS
CHARLOTTE      CLOUDY    38  18  44 NW9       29.87R WCI  31
MONROE         CLOUDY    40  20  44 N9        29.86R WCI  34
WADESBORO      SUNNY     40  17  39 NW12      29.87R WCI  33
ROCKINGHAM       N/A     39  16  39 NW12      29.85S WCI  32
RUTHERFORDTON  CLOUDY    36  22  58 N10G18    29.89R WCI  28
ASHEVILLE      CLOUDY    32  23  69 N14G22    29.86R WCI  22

$$


USA.gov is the U.S. government's official web portal to all federal, state and local government web resources and services.